Fargo, ND

10:57 AM CST on February 19, 2017 (GMT -0600)
Hector International

Weather History for KFAR - October, 2014

Change the Weather History Date:

Friday, October 31, 2014

  Actual Average Record
Temperature  
Mean Temperature 27 °F 38 °F  
Max Temperature 41 °F 48 °F 76 °F (1933)
Min Temperature 13 °F 29 °F 5 °F (1951)
Degree Days  
Heating Degree Days 38 27  
Month to date heating degree days 507 607  
Since 1 July heating degree days 699 876  
Cooling Degree Days 0 0  
Month to date cooling degree days 0 3  
Year to date cooling degree days 544 551  
Moisture  
Dew Point 17 °F    
Average Humidity 64    
Maximum Humidity 88    
Minimum Humidity 40    
Precipitation  
Precipitation 0.00 in 0.04 in 1.73 in (1979)
Month to date precipitation 0.33 2.15  
Year to date precipitation 19.24 20.78  
Snow  
Snow 0.00 in 0.10 in 2.00 in (1935)
Month to date snowfall T 0.7  
Since 1 July snowfall T 0.7  
Since 1 September snowfall T 0.7  
Snow Depth 0.00 in    
Sea Level Pressure  
Sea Level Pressure 30.57 in    
Wind  
Wind Speed 9 mph (SSE)    
Max Wind Speed 20 mph    
Max Gust Speed 27 mph    
Visibility 10 miles    
Events      
T = Trace of Precipitation, MM = Missing Value Source: NWS Daily Summary

Daily Weather History Graph

Daily Weather History Graph

Search for Another Location

Airport or City:

Trip Planner

Search our weather history database for the weather conditions in past years. The results will help you decide how hot, cold, wet, or windy it might be!

Date:

Astronomy

Oct. 31, 2014 Rise Set
Actual Time 8:08 AM CDT 6:12 PM CDT
Civil Twilight 7:36 AM CDT 6:44 PM CDT
Nautical Twilight 7:00 AM CDT 7:20 PM CDT
Astronomical Twilight 6:25 AM CDT 7:55 PM CDT
Moon 2:51 PM CDT (10/31) 12:32 AM CDT (10/31)
Length of Visible Light 11h 07m
Length of Day
10h 04m
First Quarter, 57% of the Moon is Illuminated
Oct 31
First Quarter
Nov 6
Full
Nov 14
Last Quarter
Nov 22
New
Nov 29
First Quarter

Hourly Weather History & Observations

Time (CDT) Temp. Windchill Dew Point Humidity Pressure Visibility Wind Dir Wind Speed Gust Speed Precip Events Conditions
12:53 AM 23.0 °F 11.7 °F 18.0 °F 81% 30.62 in 10.0 mi NNW 11.5 mph - N/A   Clear
1:53 AM 19.9 °F 10.1 °F 16.0 °F 85% 30.63 in 10.0 mi NNW 8.1 mph - N/A   Clear
2:53 AM 19.9 °F 10.1 °F 16.0 °F 85% 30.64 in 10.0 mi NNW 8.1 mph - N/A   Clear
3:53 AM 17.1 °F 6.6 °F 12.9 °F 84% 30.64 in 10.0 mi North 8.1 mph - N/A   Clear
4:53 AM 16.0 °F 8.8 °F 12.9 °F 88% 30.64 in 10.0 mi NNW 4.6 mph - N/A   Clear
5:53 AM 15.1 °F 5.2 °F 10.9 °F 84% 30.65 in 10.0 mi NNW 6.9 mph - N/A   Clear
6:53 AM 16.0 °F - 10.9 °F 81% 30.67 in 10.0 mi Calm Calm - N/A   Clear
7:53 AM 15.1 °F - 10.0 °F 80% 30.67 in 10.0 mi Calm Calm - N/A   Clear
8:53 AM 17.1 °F 10.0 °F 12.0 °F 81% 30.69 in 10.0 mi West 4.6 mph - N/A   Clear
9:53 AM 21.9 °F - 17.1 °F 82% 30.67 in 10.0 mi Calm Calm - N/A   Clear
10:53 AM 27.0 °F - 21.0 °F 78% 30.67 in 10.0 mi Calm Calm - N/A   Clear
11:53 AM 32.0 °F 25.6 °F 21.9 °F 66% 30.64 in 10.0 mi SE 6.9 mph - N/A   Clear
12:53 PM 35.1 °F 27.9 °F 21.0 °F 57% 30.60 in 10.0 mi SSE 9.2 mph - N/A   Clear
1:53 PM 37.9 °F 31.5 °F 21.0 °F 51% 30.56 in 10.0 mi South 9.2 mph - N/A   Clear
2:53 PM 39.0 °F 32.3 °F 19.9 °F 46% 30.54 in 10.0 mi South 10.4 mph - N/A   Clear
3:53 PM 41.0 °F 34.7 °F 19.9 °F 43% 30.52 in 10.0 mi SSE 10.4 mph - N/A   Clear
4:53 PM 39.9 °F 32.9 °F 18.0 °F 41% 30.50 in 10.0 mi SSE 11.5 mph - N/A   Clear
5:53 PM 37.9 °F 30.0 °F 18.0 °F 45% 30.48 in 10.0 mi SSE 12.7 mph - N/A   Clear
6:53 PM 36.0 °F 28.0 °F 19.0 °F 50% 30.47 in 10.0 mi SSE 11.5 mph - N/A   Clear
7:53 PM 34.0 °F 26.0 °F 19.9 °F 56% 30.45 in 10.0 mi SSE 10.4 mph - N/A   Clear
8:53 PM 33.1 °F 23.9 °F 19.9 °F 59% 30.43 in 10.0 mi SSE 12.7 mph - N/A   Clear
9:53 PM 33.1 °F 23.0 °F 19.9 °F 59% 30.43 in 10.0 mi SSE 15.0 mph - N/A   Clear
10:53 PM 30.9 °F 19.8 °F 19.9 °F 64% 30.41 in 10.0 mi SSE 16.1 mph 23.0 mph N/A   Clear
11:53 PM 30.9 °F 19.8 °F 19.0 °F 61% 30.40 in 10.0 mi SSE 16.1 mph - N/A   Clear